Starlink 34325

operational
NORAD ID: 64262 Int'l Des: 2025-120 Owner: SPXS Country: US Constellation: starlink
LEOCIRCULAR

About Starlink 34325

Description loading...

Live Position

Loading 3D Globe...

Upcoming Passes

Altitude History

Altitude vs Time

uPlot chart will show altitude changes over time

Two-Line Element Set

1 64262U 25120G 25354.40405118 .00025564 00000-0 87148-3 0 9995
2 64262 53.1551 125.2147 0002124 101.4205 258.7034 15.30228846 31772
Epoch: Dec 20, 2025 • Age: 9 hours

Current Status

Altitude 495.0 km
Velocity 7.62 km/s
Sub-Earth Point -53.31°S, 23.87°E
Launch Date Jun 4, 2025
Age 0.5 years
Type internet

Technical Details

Classification Payload
Mass 575.00 kg
Dry Mass 530.00 kg
Total Mass 575.00 kg
Length 0.30 m
Diameter 4.10 m
Span 29.00 m
Shape Box + pan
Manufacturer SPXS
Bus Type Starlink V2MO
Phase Status In Orbit
Owner/State SPXS/US

Large Constellations

Loading constellations...